This demonstration page uses our WeatherBlox Daily Observations layout. Learn more.

Left ArrowRight Arrow

Hourly Observations for December 29, 2015

Temp ( °F °C ) Dew Point ( °F °C ) Humidity (%) Winds ( mph kmh ) Pressure ( in mb ) Visibility ( mi km ) Precip ( " mm )
12:53 am 00:53 Partly Cloudy 68 20 65 18.3 90 90 SSW 6 9 29.87 1012 10 16 0.00 0.00
1:35 am 01:35 Mostly Cloudy 68 20 63 17.2 84 84 SW 7 11 29.88 1012 10 16 0.00 0.00
1:53 am 01:53 Mostly Cloudy 67 19.4 63 17.2 87 87 SW 5 7 29.88 1012 10 16 0.00 0.00
2:10 am 02:10 Mostly Clear 66 19 63 17 88 88 SW 6 9 29.91 1013 10 16 0.00 0.00
2:53 am 02:53 Clear 65 18.3 60 15.6 84 84 SW 8 13 29.91 1013 10 16 0.00 0.00
3:53 am 03:53 Partly Cloudy 63 17.2 58 14.4 84 84 SW 5 7 29.93 1014 10 16 0.00 0.00
4:01 am 04:01 Mostly Cloudy 63 17.2 58 14.4 84 84 SW 5 7 29.97 1015 10 16 0.00 0.00
4:53 am 04:53 Mostly Cloudy 62 16.7 57 13.9 84 84 WSW 7 11 29.95 1014 10 16 0.00 0.00
5:17 am 05:17 Partly Cloudy 61 16.1 55 12.8 81 81 SW 6 9 29.97 1015 10 16 0.00 0.00
5:53 am 05:53 Clear 60 15.6 54 12.2 80 80 SSW 3 6 29.97 1015 10 16 0.00 0.00
6:53 am 06:53 Clear 58 14.4 55 12.8 90 90 Calm 30.00 1016 10 16 0.00 0.00
7:53 am 07:53 Mostly Sunny 55 12.8 53 11.7 93 93 Calm 30.03 1017 10 16 0.00 0.00
8:37 am 08:37 Mostly Cloudy with Mist and Fog 57 13.9 54 12.2 90 90 Calm 30.06 1018 5 8 0.00 0.00
8:53 am 08:53 Cloudy 58 14.4 55 12.8 90 90 WSW 3 6 30.06 1018 10 16 0.00 0.00
9:24 am 09:24 Cloudy 59 15 55 12.8 87 87 VRB 3 6 30.09 1019 10 16 0.00 0.00
9:53 am 09:53 Cloudy 59 15 54 12.2 83 83 SW 9 15 30.07 1018 10 16 0.00 0.00
10:53 am 10:53 Mostly Cloudy 61 16.1 54 12.2 78 78 SW 8 13 30.09 1019 10 16 0.00 0.00
11:53 am 11:53 Mostly Sunny 63 17.2 53 11.7 70 70 W 7 11 30.08 1019 10 16 0.00 0.00
12:53 pm 12:53 Sunny 66 18.9 53 11.7 63 63 WSW 8 13 30.06 1018 10 16 0.00 0.00
1:53 pm 13:53 Sunny 67 19.4 54 12.2 63 63 W 7 11 30.05 1018 10 16 0.00 0.00
2:53 pm 14:53 Sunny 69 20.6 54 12.2 59 59 WSW 6 9 30.05 1018 10 16 0.00 0.00
3:53 pm 15:53 Sunny 70 21.1 54 12.2 57 57 WSW 6 9 30.06 1018 10 16 0.00 0.00
4:53 pm 16:53 Sunny 69 20.6 53 11.7 57 57 SSW 6 9 30.06 1018 10 16 0.00 0.00
5:53 pm 17:53 Clear 66 18.9 53 11.7 63 63 Calm 30.08 1019 10 16 0.00 0.00
6:53 pm 18:53 Clear 61 16.1 54 12.2 78 78 Calm 30.10 1019 10 16 0.00 0.00
7:53 pm 19:53 Clear 59 15 55 12.8 87 87 Calm 30.11 1020 10 16 0.00 0.00
8:53 pm 20:53 Clear 57 13.9 54 12.2 90 90 Calm 30.11 1020 10 16 0.00 0.00
9:53 pm 21:53 Mostly Clear 57 13.9 54 12.2 90 90 Calm 30.14 1021 10 16 0.00 0.00
10:53 pm 22:53 Partly Cloudy 57 13.9 54 12.2 90 90 Calm 30.14 1021 10 16 0.00 0.00
11:53 pm 23:53 Clear 56 13.3 54 12.2 93 93 Calm 30.14 1021 10 16 0.00 0.00

Powered by AerisWeather